Location: General Nathan Twining Observatory
(34.5931°N, 106.8201°W)
Time: 18:25:07
(UTC-06:00)

Cosmos 1943 Rocket - Pass Details

Date: 20 September 2017
Orbit: 812 x 844 km, 71.0° (Epoch: 17 October)

Event Time Altitude Azimuth Distance (km) Brightness Sun altitude
Rises 20:46:12 0° 331° (NNW) 3,367 6.0 -21.1°
Reaches altitude 10° 20:48:43 10° 325° (NW) 2,436 5.3 -21.6°
Maximum altitude 20:53:59 45° 255° (WSW) 1,130 3.2 -22.6°
Drops below altitude 10° 20:59:17 10° 184° (S) 2,441 4.4 -23.7°
Enters shadow 20:59:43 - 182° (S) 2,599 4.6 -23.8°
